| time (UTC) | temp F | wind direction | speed knots | gust knots | rain 1hr in | rain 24hr in | rain mn in | humidity % | barometer mb |
| 20260506014535 | 71 | 198 | 1.7 | 11.3 | 0.00 | 0.00 | 0.00 | 59 | 1011.2 |
| 20260506013039 | 71 | 0 | 0.9 | 13.9 | 0.00 | 0.00 | 0.00 | 60 | 1011.1 |
| 20260506011558 | 71 | 148 | 0.9 | 9.6 | 0.00 | 0.00 | 0.00 | 60 | 1011.1 |
| 20260506010030 | 71 | 173 | 2.6 | 7.8 | 0.00 | 0.00 | 0.00 | 59 | 1010.9 |
| 20260506004543 | 72 | 157 | 2.6 | 11.3 | 0.00 | 0.00 | 0.00 | 50 | 1010.9 |
| 20260506003035 | 73 | 168 | 0.0 | 13.0 | 0.00 | 0.00 | 0.00 | 53 | 1010.6 |
| 20260506001535 | 74 | 150 | 0.9 | 11.3 | 0.00 | 0.00 | 0.00 | 49 | 1010.2 |
| 20260506000039 | 76 | 153 | 0.0 | 7.8 | 0.00 | 0.00 | 0.00 | 40 | 1010.2 |
| 20260505234535 | 76 | 148 | 1.7 | 5.2 | 0.00 | 0.00 | 0.00 | 43 | 1010.2 |
| 20260505233036 | 77 | 173 | 0.9 | 6.1 | 0.00 | 0.00 | 0.00 | 43 | 1010.0 |
| 20260505231541 | 77 | 168 | 0.9 | 6.1 | 0.00 | 0.00 | 0.00 | 43 | 1009.8 |
| 20260505230035 | 78 | 185 | 1.7 | 5.2 | 0.00 | 0.00 | 0.00 | 34 | 1009.8 |
| 20260505224533 | 78 | 0 | 1.7 | 7.8 | 0.00 | 0.00 | 0.00 | 41 | 1009.6 |
| 20260505223036 | 79 | 200 | 1.7 | 7.0 | 0.00 | 0.00 | 0.00 | 41 | 1009.6 |
| 20260505221534 | 79 | 173 | 2.6 | 6.1 | 0.00 | 0.00 | 0.00 | 39 | 1009.4 |
| 20260505220048 | 80 | 193 | 3.5 | 8.7 | 0.00 | 0.00 | 0.00 | 30 | 1009.4 |
| 20260505214534 | 80 | 199 | 0.9 | 6.1 | 0.00 | 0.00 | 0.00 | 37 | 1009.5 |
| 20260505213038 | 81 | 0 | 0.9 | 6.1 | 0.00 | 0.00 | 0.00 | 34 | 1009.3 |
| 20260505211539 | 81 | 206 | 2.6 | 7.0 | 0.00 | 0.00 | 0.00 | 26 | 1009.2 |
| 20260505210044 | 81 | 207 | 2.6 | 6.1 | 0.00 | 0.00 | 0.00 | 27 | 1009.2 |
| 20260505204537 | 82 | 206 | 1.7 | 7.0 | 0.00 | 0.00 | 0.00 | 32 | 1009.1 |
| 20260505203033 | 82 | 205 | 0.9 | 8.7 | 0.00 | 0.00 | 0.00 | 33 | 1009.2 |
| 20260505201540 | 82 | 209 | 0.9 | 6.1 | 0.00 | 0.00 | 0.00 | 25 | 1009.0 |
| 20260505200036 | 83 | 211 | 0.9 | 9.6 | 0.00 | 0.00 | 0.00 | 27 | 1009.1 |
| 20260505194535 | 83 | 188 | 1.7 | 7.8 | 0.00 | 0.00 | 0.00 | 35 | 1009.3 |
| 20260505193040 | 83 | 199 | 0.9 | 7.0 | 0.00 | 0.00 | 0.00 | 31 | 1009.3 |
| 20260505191534 | 83 | 200 | 1.7 | 7.0 | 0.00 | 0.00 | 0.00 | 37 | 1009.4 |
| 20260505190032 | 83 | 204 | 2.6 | 7.8 | 0.00 | 0.00 | 0.00 | 29 | 1009.7 |
| 20260505184536 | 83 | 214 | 0.9 | 10.4 | 0.00 | 0.00 | 0.00 | 35 | 1009.7 |
| 20260505183047 | 83 | 192 | 0.9 | 7.0 | 0.00 | 0.00 | 0.00 | 40 | 1009.9 |
| 20260505181535 | 83 | 190 | 1.7 | 7.0 | 0.00 | 0.00 | 0.00 | 35 | 1010.0 |
| 20260505180034 | 82 | 190 | 0.9 | 5.2 | 0.00 | 0.00 | 0.00 | 33 | 1010.3 |
| 20260505174536 | 83 | 187 | 0.0 | 3.5 | 0.00 | 0.00 | 0.00 | 35 | 1010.5 |
| 20260505173033 | 82 | 221 | 0.0 | 5.2 | 0.00 | 0.00 | 0.00 | 38 | 1010.7 |
| 20260505171533 | 82 | 56 | 0.0 | 4.3 | 0.00 | 0.00 | 0.00 | 36 | 1010.8 |
| 20260505170032 | 81 | 185 | 0.9 | 3.5 | 0.00 | 0.00 | 0.00 | 36 | 1011.0 |
| 20260505164552 | 81 | 0 | 0.0 | 7.0 | 0.00 | 0.00 | 0.00 | 37 | 1011.0 |
| 20260505163037 | 80 | 178 | 0.0 | 7.0 | 0.00 | 0.00 | 0.00 | 44 | 1011.2 |
| 20260505161544 | 79 | 0 | 0.0 | 4.3 | 0.00 | 0.00 | 0.00 | 42 | 1011.2 |
| 20260505153035 | 78 | 0 | 0.0 | 4.3 | 0.00 | 0.00 | 0.00 | 40 | 1012.0 |
| 20260505151534 | 76 | 0 | 0.0 | 4.3 | 0.00 | 0.00 | 0.00 | 43 | 1011.7 |
| 20260505124545 | 67 | 0 | 0.0 | 2.6 | 0.00 | 0.00 | 0.00 | 62 | 1012.0 |
| 20260505123034 | 66 | 0 | 0.0 | 1.7 | 0.00 | 0.00 | 0.00 | 63 | 1011.9 |
| 20260505121535 | 65 | 0 | 0.0 | 1.7 | 0.00 | 0.00 | 0.00 | 59 | 1012.0 |
| 20260505120047 | 64 | 0 | 0.0 | 2.6 | 0.00 | 0.00 | 0.00 | 62 | 1012.1 |
| 20260505114536 | 63 | 0 | 0.0 | 1.7 | 0.00 | 0.00 | 0.00 | 72 | 1012.0 |
| 20260505113035 | 62 | 0 | 0.0 | 0.9 | 0.00 | 0.00 | 0.00 | 74 | 1011.8 |
| 20260505111530 | 61 | 0 | 0.0 | 0.0 | 0.00 | 0.00 | 0.00 | 75 | 1011.9 |
| 20260505101532 | 62 | 0 | 0.0 | 1.7 | 0.00 | 0.00 | 0.00 | 74 | 1011.3 |
| 20260505100033 | 62 | 0 | 0.0 | 3.5 | 0.00 | 0.00 | 0.00 | 73 | 1011.1 |
| 20260505094535 | 61 | 160 | 0.0 | 1.7 | 0.00 | 0.00 | 0.00 | 74 | 1011.1 |
| 20260505093035 | 60 | 0 | 0.0 | 0.9 | 0.00 | 0.00 | 0.00 | 77 | 1010.9 |
| 20260505091535 | 59 | 0 | 0.0 | 0.0 | 0.00 | 0.00 | 0.00 | 77 | 1011.1 |
| 20260505090035 | 59 | 0 | 0.0 | 0.0 | 0.00 | 0.00 | 0.00 | 78 | 1010.9 |
| 20260505084544 | 58 | 0 | 0.0 | 0.9 | 0.00 | 0.00 | 0.00 | 80 | 1010.6 |
| 20260505083042 | 59 | 0 | 0.0 | 1.7 | 0.00 | 0.00 | 0.00 | 78 | 1010.8 |
| 20260505081538 | 59 | 0 | 0.0 | 0.0 | 0.00 | 0.00 | 0.00 | 76 | 1010.9 |
| 20260505080033 | 60 | 0 | 0.0 | 0.0 | 0.00 | 0.00 | 0.00 | 76 | 1011.0 |
| 20260505074535 | 60 | 0 | 0.0 | 0.0 | 0.00 | 0.00 | 0.00 | 76 | 1011.1 |
| 20260505073034 | 59 | 0 | 0.0 | 0.0 | 0.00 | 0.00 | 0.00 | 77 | 1011.0 |
| 20260505071536 | 58 | 0 | 0.0 | 0.0 | 0.00 | 0.00 | 0.00 | 77 | 1011.0 |
| 20260505070044 | 58 | 0 | 0.0 | 0.0 | 0.00 | 0.00 | 0.00 | 77 | 1011.1 |
| 20260505064536 | 58 | 0 | 0.0 | 0.9 | 0.00 | 0.00 | 0.00 | 77 | 1011.0 |
| 20260505063035 | 58 | 0 | 0.0 | 0.0 | 0.00 | 0.00 | 0.00 | 75 | 1010.9 |
| 20260505061534 | 58 | 0 | 0.0 | 0.0 | 0.00 | 0.00 | 0.00 | 74 | 1011.0 |
| 20260505060039 | 59 | 0 | 0.0 | 0.0 | 0.00 | 0.00 | 0.00 | 74 | 1011.0 |
| 20260505054531 | 59 | 0 | 0.0 | 0.0 | 0.00 | 0.00 | 0.00 | 72 | 1011.2 |
| 20260505053101 | 59 | 0 | 0.0 | 0.0 | 0.00 | 0.00 | 0.00 | 72 | 1011.3 |
| 20260505051532 | 60 | 0 | 0.0 | 0.0 | 0.00 | 0.00 | 0.00 | 71 | 1011.3 |
| 20260505041541 | 62 | 0 | 0.0 | 2.6 | 0.00 | 0.00 | 0.00 | 65 | 1011.2 |
| 20260505040038 | 62 | 129 | 0.0 | 2.6 | 0.00 | 0.00 | 0.00 | 67 | 1011.2 |
| 20260505034536 | 61 | 0 | 0.0 | 3.5 | 0.00 | 0.00 | 0.00 | 67 | 1011.3 |
| 20260505033045 | 62 | 0 | 0.0 | 2.6 | 0.00 | 0.00 | 0.00 | 66 | 1011.3 |
| 20260505031535 | 62 | 130 | 0.9 | 6.1 | 0.00 | 0.00 | 0.00 | 65 | 1011.3 |
| 20260505030035 | 61 | 0 | 0.0 | 2.6 | 0.00 | 0.00 | 0.00 | 63 | 1011.3 |
| 20260505024535 | 62 | 0 | 0.0 | 4.3 | 0.00 | 0.00 | 0.00 | 60 | 1011.4 |
| 20260505023035 | 62 | 133 | 0.0 | 3.5 | 0.00 | 0.00 | 0.00 | 51 | 1011.5 |
| 20260505021536 | 63 | 0 | 0.0 | 2.6 | 0.00 | 0.00 | 0.00 | 54 | 1011.5 |
| 20260505020033 | 63 | 0 | 0.0 | 3.5 | 0.00 | 0.00 | 0.00 | 52 | 1011.4 |